• In Moldova, Republic
  • List of Countries
  • For 7 days
  • Water Temperature
  • Satellite Maps
  • Weather Map
  • Weather Widgets
  • user-avatar
    Login

    Hourly Weather Satif

    Today, 26 May, Saturday

    Time Temperature Precipitation Wind Pressure Humidity
    00:00 +21°C° 0 mm 3 mps 672 mmHg 52%
    01:00 +20°C° 0 mm 2 mps 671 mmHg 54%
    02:00 +20°C° 0 mm 2 mps 671 mmHg 57%
    03:00 +19°C° 0 mm 2 mps 671 mmHg 59%
    04:00 +20°C° 0 mm 2 mps 671 mmHg 56%
    05:00 +21°C° 0 mm 2 mps 672 mmHg 53%
    06:00 +23°C° 0 mm 2 mps 673 mmHg 47%
    07:00 +25°C° 0 mm 3 mps 673 mmHg 40%
    08:00 +27°C° 0 mm 4 mps 674 mmHg 33%
    09:00 +28°C° 0 mm 5 mps 674 mmHg 26%
    10:00 +29°C° 0 mm 6 mps 674 mmHg 25%
    11:00 +30°C° 0 mm 7 mps 674 mmHg 23%
    12:00 +32°C° 0 mm 8 mps 674 mmHg 21%
    13:00 +31°C° 0 mm 8 mps 674 mmHg 21%
    14:00 +31°C° 0 mm 8 mps 674 mmHg 22%
    15:00 +31°C° 0 mm 9 mps 674 mmHg 22%
    16:00 +29°C° 0 mm 7 mps 673 mmHg 25%
    17:00 +27°C° 0 mm 6 mps 673 mmHg 28%
    18:00 +26°C° 0 mm 5 mps 673 mmHg 30%
    19:00 +26°C° 0 mm 5 mps 673 mmHg 30%
    20:00 +25°C° 0 mm 4 mps 673 mmHg 30%
    21:00 +25°C° 0 mm 4 mps 673 mmHg 30%
    22:00 +23°C° 0 mm 4 mps 673 mmHg 30%
    23:00 +23°C° 0 mm 4 mps 673 mmHg 30%

    Tomorrow, 27 May, Sunday

    Time Temperature Precipitation Wind Pressure Humidity
    00:00 +23°C° 0 mm 4 mps 673 mmHg 30%
    01:00 +22°C° 0 mm 4 mps 672 mmHg 32%
    02:00 +22°C° 0 mm 3 mps 672 mmHg 35%
    03:00 +22°C° 0 mm 3 mps 672 mmHg 37%
    04:00 +22°C° 0 mm 3 mps 672 mmHg 40%
    05:00 +22°C° 0 mm 3 mps 672 mmHg 43%
    06:00 +22°C° 0 mm 3 mps 673 mmHg 45%
    07:00 +23°C° 0 mm 4 mps 673 mmHg 40%
    08:00 +26°C° 0 mm 5 mps 674 mmHg 35%
    09:00 +28°C° 0 mm 6 mps 674 mmHg 29%
    10:00 +29°C° 0 mm 7 mps 675 mmHg 28%
    11:00 +29°C° 0 mm 7 mps 675 mmHg 26%
    12:00 +31°C° 0 mm 8 mps 675 mmHg 25%
    13:00 +30°C° 0 mm 6 mps 674 mmHg 25%
    14:00 +30°C° 0 mm 5 mps 674 mmHg 25%
    15:00 +30°C° 0 mm 4 mps 674 mmHg 25%
    16:00 +29°C° 0 mm 4 mps 674 mmHg 29%
    17:00 +28°C° 0 mm 4 mps 673 mmHg 33%
    18:00 +27°C° 0 mm 4 mps 673 mmHg 37%
    19:00 +25°C° 0.1 mm 3 mps 673 mmHg 45%
    20:00 +24°C° 0.1 mm 3 mps 673 mmHg 53%
    21:00 +21°C° 0.1 mm 2 mps 673 mmHg 62%
    22:00 +20°C° 0.1 mm 2 mps 672 mmHg 65%
    23:00 +19°C° 0.1 mm 2 mps 672 mmHg 69%

    Day after tomorrow, 28 May, Monday

    Time Temperature Precipitation Wind Pressure Humidity
    00:00 +19°C° 0.1 mm 2 mps 672 mmHg 72%
    01:00 +18°C° 0.1 mm 2 mps 671 mmHg 74%
    02:00 +18°C° 0.1 mm 2 mps 671 mmHg 76%
    03:00 +17°C° 0.1 mm 2 mps 671 mmHg 78%
    04:00 +17°C° 0 mm 2 mps 671 mmHg 76%
    05:00 +18°C° 0 mm 2 mps 671 mmHg 74%
    06:00 +18°C° 0 mm 3 mps 671 mmHg 72%
    07:00 +20°C° 0 mm 3 mps 671 mmHg 64%
    08:00 +22°C° 0 mm 3 mps 672 mmHg 56%
    09:00 +25°C° 0 mm 3 mps 672 mmHg 48%
    10:00 +26°C° 0 mm 5 mps 672 mmHg 44%
    11:00 +28°C° 0 mm 6 mps 672 mmHg 39%
    12:00 +29°C° 0 mm 8 mps 672 mmHg 35%
    13:00 +29°C° 0 mm 8 mps 672 mmHg 35%
    14:00 +29°C° 0 mm 8 mps 672 mmHg 35%
    15:00 +29°C° 0 mm 8 mps 672 mmHg 35%
    16:00 +27°C° 0 mm 6 mps 671 mmHg 42%
    17:00 +26°C° 0 mm 4 mps 671 mmHg 48%
    18:00 +25°C° 0 mm 3 mps 671 mmHg 55%
    19:00 +22°C° 0 mm 3 mps 671 mmHg 64%
    20:00 +20°C° 0 mm 3 mps 671 mmHg 72%
    21:00 +18°C° 0 mm 3 mps 671 mmHg 81%
    22:00 +17°C° 0 mm 3 mps 671 mmHg 82%
    23:00 +17°C° 0 mm 3 mps 670 mmHg 84%

    29 May, Tuesday

    Time Temperature Precipitation Wind Pressure Humidity
    00:00 +16°C° 0 mm 2 mps 670 mmHg 85%
    01:00 +16°C° 0 mm 2 mps 670 mmHg 86%
    02:00 +16°C° 0 mm 2 mps 670 mmHg 86%
    03:00 +16°C° 0 mm 2 mps 670 mmHg 87%
    04:00 +16°C° 0 mm 2 mps 670 mmHg 87%
    05:00 +16°C° 0 mm 2 mps 670 mmHg 86%
    06:00 +16°C° 0 mm 2 mps 670 mmHg 86%
    07:00 +16°C° 0 mm 2 mps 670 mmHg 82%
    08:00 +17°C° 0 mm 2 mps 670 mmHg 78%
    09:00 +18°C° 0 mm 2 mps 671 mmHg 74%
    10:00 +19°C° 0 mm 2 mps 671 mmHg 70%
    11:00 +20°C° 0 mm 2 mps 671 mmHg 65%
    12:00 +21°C° 0 mm 3 mps 671 mmHg 61%
    13:00 +22°C° 0 mm 3 mps 671 mmHg 60%
    14:00 +22°C° 0 mm 3 mps 671 mmHg 58%
    15:00 +23°C° 0 mm 4 mps 671 mmHg 57%
    16:00 +22°C° 0.1 mm 4 mps 671 mmHg 61%
    17:00 +21°C° 0.1 mm 4 mps 671 mmHg 65%
    18:00 +20°C° 0.1 mm 4 mps 670 mmHg 69%
    19:00 +19°C° 0 mm 3 mps 671 mmHg 74%
    20:00 +18°C° 0 mm 3 mps 671 mmHg 78%
    21:00 +17°C° 0 mm 2 mps 671 mmHg 83%
    22:00 +16°C° 0 mm 2 mps 671 mmHg 84%
    23:00 +16°C° 0 mm 2 mps 670 mmHg 85%

    30 May, Wednesday

    Time Temperature Precipitation Wind Pressure Humidity
    00:00 +15°C° 0 mm 2 mps 670 mmHg 87%
    01:00 +15°C° 0 mm 2 mps 670 mmHg 87%
    02:00 +14°C° 0 mm 2 mps 670 mmHg 88%
    03:00 +14°C° 0 mm 2 mps 669 mmHg 88%
    04:00 +15°C° 0 mm 2 mps 670 mmHg 85%
    05:00 +15°C° 0 mm 2 mps 670 mmHg 82%
    06:00 +15°C° 0 mm 2 mps 670 mmHg 79%
    07:00 +17°C° 0 mm 2 mps 671 mmHg 69%
    08:00 +19°C° 0 mm 2 mps 671 mmHg 59%
    09:00 +21°C° 0 mm 3 mps 672 mmHg 49%
    10:00 +22°C° 0 mm 3 mps 672 mmHg 46%
    11:00 +25°C° 0 mm 3 mps 672 mmHg 42%
    12:00 +26°C° 0 mm 3 mps 672 mmHg 39%
    13:00 +26°C° 0.1 mm 4 mps 672 mmHg 39%
    14:00 +26°C° 0.1 mm 4 mps 672 mmHg 40%
    15:00 +26°C° 0.1 mm 4 mps 672 mmHg 41%
    16:00 +23°C° 0.5 mm 4 mps 672 mmHg 50%
    17:00 +21°C° 0.5 mm 4 mps 671 mmHg 58%
    18:00 +19°C° 0.5 mm 4 mps 671 mmHg 67%
    19:00 +18°C° 0.4 mm 4 mps 671 mmHg 72%
    20:00 +17°C° 0.4 mm 3 mps 671 mmHg 77%
    21:00 +16°C° 0.4 mm 2 mps 672 mmHg 81%
    22:00 +16°C° 0.2 mm 2 mps 671 mmHg 81%
    23:00 +16°C° 0.2 mm 2 mps 671 mmHg 81%

    31 May, Thursday

    Time Temperature Precipitation Wind Pressure Humidity
    00:00 +16°C° 0.2 mm 2 mps 671 mmHg 81%
    01:00 +16°C° 0.3 mm 2 mps 671 mmHg 82%
    02:00 +15°C° 0.3 mm 2 mps 671 mmHg 83%
    03:00 +15°C° 0.3 mm 1 mps 671 mmHg 84%
    04:00 +16°C° 0.2 mm 1 mps 671 mmHg 82%
    05:00 +16°C° 0.2 mm 2 mps 672 mmHg 81%
    06:00 +16°C° 0.2 mm 2 mps 672 mmHg 80%
    07:00 +17°C° 0 mm 2 mps 672 mmHg 74%
    08:00 +19°C° 0 mm 2 mps 673 mmHg 69%
    09:00 +20°C° 0 mm 2 mps 673 mmHg 64%
    10:00 +21°C° 0 mm 3 mps 673 mmHg 60%
    11:00 +24°C° 0 mm 3 mps 674 mmHg 56%
    12:00 +25°C° 0 mm 3 mps 674 mmHg 52%
    13:00 +25°C° 0.2 mm 3 mps 674 mmHg 52%
    14:00 +26°C° 0.2 mm 3 mps 674 mmHg 51%
    15:00 +26°C° 0.2 mm 4 mps 674 mmHg 51%
    16:00 +25°C° 1.2 mm 4 mps 673 mmHg 57%
    17:00 +22°C° 1.2 mm 4 mps 673 mmHg 63%
    18:00 +21°C° 1.2 mm 4 mps 673 mmHg 69%
    19:00 +20°C° 1.1 mm 3 mps 673 mmHg 74%
    20:00 +19°C° 1.1 mm 3 mps 673 mmHg 78%
    21:00 +18°C° 1.1 mm 2 mps 674 mmHg 83%
    22:00 +18°C° 0.4 mm 2 mps 674 mmHg 84%
    23:00 +18°C° 0.4 mm 2 mps 673 mmHg 84%
    Show more